Birmingham, AL

3:22 AM CST on February 07, 2016 (GMT -0600)
Birmingham International

Weather History for KBHM - November, 2014

Change the Weather History Date:

Wednesday, November 19, 2014

  Actual Average Record
Temperature  
Mean Temperature 36 °F 53 °F  
Max Temperature 52 °F 64 °F 80 °F (1942)
Min Temperature 20 °F 42 °F 18 °F (1903)
Degree Days  
Heating Degree Days 29 12  
Month to date heating degree days 328 179  
Since 1 July heating degree days 415 306  
Moisture  
Dew Point 19 °F    
Average Humidity 59    
Maximum Humidity 92    
Minimum Humidity 26    
Precipitation  
Precipitation 0.00 in 0.17 in 2.37 in (1900)
Month to date precipitation 3.54 2.87  
Year to date precipitation 41.70 47.29  
Snow  
Snow 0.00 in 0.00 in - ()
Month to date snowfall 0.0 0.0  
Since 1 July snowfall 0.0 0.0  
Since 1 September snowfall 0.0 0.0  
Snow Depth 0.00 in    
Sea Level Pressure  
Sea Level Pressure 30.36 in    
Wind  
Wind Speed 6 mph (SSW)    
Max Wind Speed 16 mph    
Max Gust Speed 20 mph    
Visibility 10 miles    
Events      
T = Trace of Precipitation, MM = Missing Value Source: NWS Daily Summary

Daily Weather History Graph

Daily Weather History Graph

Search for Another Location

Airport or City:

Trip Planner

Search our weather history database for the weather conditions in past years. The results will help you decide how hot, cold, wet, or windy it might be!

Date:

Astronomy

Nov. 19, 2014 Rise Set
Actual Time 6:22 AM CST 4:42 PM CST
Civil Twilight 5:55 AM CST 5:08 PM CST
Nautical Twilight 5:25 AM CST 5:38 PM CST
Astronomical Twilight 4:55 AM CST 6:08 PM CST
Moon 3:26 AM CST (11/19) 3:02 PM CST (11/19)
Length of Visible Light 11h 13m
Length of Day
10h 19m
Waning Crescent, 8% of the Moon is Illuminated
Nov 19
Waning Crescent
Nov 22
New
Nov 29
First Quarter
Dec 6
Full
Dec 14
Last Quarter

Hourly Weather History & Observations

Time (CST) Temp. Windchill Dew Point Humidity Pressure Visibility Wind Dir Wind Speed Gust Speed Precip Events Conditions
12:53 AM 21.9 °F - 17.1 °F 82% 30.46 in 10.0 mi Calm Calm - N/A   Clear
1:53 AM 21.9 °F - 17.1 °F 82% 30.45 in 10.0 mi Calm Calm - N/A   Clear
2:53 AM 21.0 °F - 17.1 °F 85% 30.44 in 10.0 mi Calm Calm - N/A   Clear
3:53 AM 21.0 °F - 17.1 °F 85% 30.43 in 10.0 mi Calm Calm - N/A   Clear
4:53 AM 21.0 °F - 17.1 °F 85% 30.43 in 10.0 mi Calm Calm - N/A   Clear
5:53 AM 21.0 °F - 17.1 °F 85% 30.43 in 10.0 mi Calm Calm - N/A   Clear
6:53 AM 21.9 °F - 19.0 °F 89% 30.44 in 10.0 mi Calm Calm - N/A   Clear
7:53 AM 30.0 °F - 23.0 °F 75% 30.44 in 10.0 mi Calm Calm - N/A   Clear
8:53 AM 37.9 °F - 21.9 °F 53% 30.43 in 10.0 mi Calm Calm - N/A   Partly Cloudy
9:53 AM 43.0 °F 36.8 °F 18.0 °F 37% 30.43 in 10.0 mi SSW 11.5 mph - N/A   Partly Cloudy
10:53 AM 46.0 °F 41.4 °F 19.9 °F 35% 30.41 in 10.0 mi SW 9.2 mph - N/A   Partly Cloudy
11:53 AM 46.9 °F - 19.0 °F 33% 30.37 in 10.0 mi SW 10.4 mph - N/A   Scattered Clouds
12:53 PM 50.0 °F - 19.0 °F 29% 30.34 in 10.0 mi SSW 15.0 mph - N/A   Scattered Clouds
1:53 PM 51.1 °F - 18.0 °F 27% 30.30 in 10.0 mi South 11.5 mph - N/A   Partly Cloudy
2:53 PM 51.1 °F - 18.0 °F 27% 30.28 in 10.0 mi South 11.5 mph - N/A   Partly Cloudy
3:53 PM 50.0 °F - 17.1 °F 27% 30.27 in 10.0 mi SSW 12.7 mph - N/A   Partly Cloudy
4:53 PM 46.0 °F 41.9 °F 19.0 °F 34% 30.27 in 10.0 mi SSW 8.1 mph - N/A   Partly Cloudy
5:53 PM 45.0 °F 42.6 °F 19.9 °F 37% 30.28 in 10.0 mi South 4.6 mph - N/A   Partly Cloudy
6:53 PM 42.1 °F 37.1 °F 21.9 °F 45% 30.30 in 10.0 mi South 8.1 mph - N/A   Clear
7:53 PM 43.0 °F 40.3 °F 21.0 °F 42% 30.28 in 10.0 mi South 4.6 mph - N/A   Clear
8:53 PM 44.1 °F 38.6 °F 21.0 °F 40% 30.29 in 10.0 mi SSW 10.4 mph - N/A   Clear
9:53 PM 45.0 °F 40.1 °F 21.0 °F 39% 30.29 in 10.0 mi SSW 9.2 mph - N/A   Clear
10:53 PM 43.0 °F 38.8 °F 21.0 °F 42% 30.29 in 10.0 mi SSW 6.9 mph - N/A   Clear
11:53 PM 46.0 °F 41.4 °F 21.0 °F 37% 30.28 in 10.0 mi SSW 9.2 mph - N/A   Overcast